[[{"header":{"parameterUnit":"m.s-1","parameterCategory":2,"la1":30.2991,"la2":30.254,"lo1":-89.0895,"lo2":-89.0444,"dy":0.0017,"dx":0.0017,"nx":28,"ny":28,"refTime":"2024-10-07T03:00:00:Z","depth":"0","parameterNumber":2,"parameterNumberName":"U-component_of_CURRENTS"},"data":[0,0,0,0,0,0,0,0,0,0,0,0,0,0,0,0,0,0,0,0,0,0,0,0,0,0,0,0,0,0,0,0,0,0,0,0,0,0,0,0,0,0,0,0,0,0,0,0,0,0,0,0,0,0,0,0,0,0,0.2593,0.2594,0,0.2608,0.2608,0.2608,0.2592,0.2592,0.2592,0.2591,0.2571,0.2571,0.2571,0,0,0,0,0,0,0,0,0,0,0,0,0,0.2546,0.2547,0.2593,0.2594,0.2594,0.2608,0.2608,0.2608,0.2593,0.2592,0.2592,0.2591,0.2571,0.2571,0.2571,0,0,0,0,0,0,0,0,0,0,0,0,0,0.2562,0.2547,0.2593,0.2589,0.2589,0.2608,0.2608,0.2608,0.2593,0.2592,0.2591,0.2591,0.2571,0.2571,0.2571,0.2582,0,0,0.257,0.257,0,0,0,0,0,0,0,0,0.2561,0.2564,0.259,0.259,0.259,0.26,0.2584,0.2598,0.2593,0.2589,0.2591,0.2591,0.2579,0.2578,0.258,0.2581,0.258,0.257,0.257,0.257,0.257,0,0,0,0,0,0,0,0.256,0.2563,0.2597,0.259,0.259,0.2585,0.2587,0.2587,0.2585,0.2589,0.2589,0.2594,0.2579,0.258,0.2579,0.258,0.257,0.257,0.257,0.257,0.2615,0.2616,0,0,0,0,0,0,0.2564,0.2562,0.2596,0.2598,0.2576,0.2587,0.2588,0.2595,0.2586,0.2585,0.2595,0.2593,0.2581,0.258,0.2579,0.2608,0.257,0.257,0.257,0.2613,0.2615,0.2616,0,0,0,0,0,0,0.2563,0.2567,0.2596,0.2582,0.2585,0.2589,0.2596,0.2596,0.2601,0.2591,0.2588,0.2601,0.2581,0.2579,0.2589,0.2606,0.257,0.257,0.2612,0.2614,0.2616,0.2655,0,0,0,0,0,0,0.2561,0.2566,0.2572,0.2582,0.2586,0.2614,0.2597,0.2597,0.2606,0.2604,0.2595,0.2592,0.258,0.259,0.2589,0.2605,0.2569,0.261,0.2613,0.2615,0.2652,0.2658,0.2663,0,0,0,0,0,0.256,0.257,0.2572,0.2577,0.2594,0.2615,0.2616,0.2615,0.2607,0.2615,0.2611,0.2593,0.2605,0.2591,0.259,0.2606,0.2609,0.2612,0.2615,0.2649,0.2656,0.2663,0,0,0,0,0,0,0.255,0.257,0.2572,0.2588,0.2604,0.2613,0.2621,0.2621,0.2625,0.2623,0.2607,0.2605,0.2624,0.2613,0.2597,0.2628,0.2605,0.2608,0.2632,0.2638,0.2644,0.2656,0.2569,0,0,0,0,0,0.2553,0.2567,0.2585,0.2598,0.2608,0.2617,0.2624,0.2627,0.2633,0.2633,0.2628,0.2627,0.2636,0.2635,0.264,0.2652,0.2663,0.2664,0.267,0.2674,0.2686,0.2719,0.2729,0.2626,0.2626,0.2626,0,0,0.2552,0.2566,0.2573,0.2598,0.2609,0.2628,0.2619,0.2638,0.2652,0.2631,0.2646,0.2648,0.2647,0.2665,0.2671,0.2654,0.2712,0.2678,0.2682,0.2691,0.2723,0.2733,0.2742,0.2628,0.2628,0.2627,0,0,0.2559,0.2573,0.2587,0.2605,0.263,0.264,0.2648,0.2664,0.267,0.2687,0.2682,0.2699,0.2699,0.2708,0.2711,0.2753,0.2745,0.2751,0.2781,0.2813,0.2822,0.283,0.2864,0.2874,0.2747,0.2747,0.2747,0,0.2555,0.2577,0.2594,0.2616,0.2632,0.2647,0.2667,0.2681,0.2697,0.2711,0.2696,0.2728,0.2723,0.2758,0.2772,0.2766,0.2782,0.2752,0.2821,0.2828,0.2836,0.2868,0.2879,0.2749,0.2749,0.2749,0.2749,0,0.2574,0.2593,0.2606,0.2638,0.2659,0.268,0.2707,0.2727,0.2734,0.2748,0.2784,0.2787,0.2805,0.2808,0.28,0.2852,0.2847,0.2828,0.2801,0.2848,0.288,0.2891,0.2752,0.2752,0.2751,0.275,0,0,0.2554,0.2607,0.261,0.2627,0.2672,0.2688,0.2727,0.2765,0.2795,0.281,0.2849,0.2868,0.2874,0.2881,0.2878,0.2903,0.2967,0.2887,0.2888,0.2918,0.3046,0.304,0.3051,0.2957,0.2959,0.2961,0.305,0,0.2559,0.2595,0.2627,0.2661,0.2679,0.2717,0.2753,0.2792,0.2824,0.2868,0.2889,0.2924,0.2901,0.2916,0.294,0.2967,0.2997,0.2945,0.2999,0.3001,0.2987,0.3063,0.2978,0.305,0.306,0.3062,0.3063,0,0.256,0.2586,0.2616,0.2671,0.2684,0.2708,0.2771,0.2807,0.2881,0.2915,0.296,0.2979,0.3032,0.2999,0.307,0.3038,0.305,0.3062,0.3065,0.3054,0.3015,0.3004,0.3069,0.3016,0.308,0.3078,0.3077,0,0.252,0.2576,0.2596,0.2614,0.2679,0.2701,0.2738,0.2813,0.2863,0.2948,0.2997,0.3053,0.3096,0.3119,0.3148,0.3114,0.3227,0.3177,0.3185,0.3184,0.3121,0.3111,0.3138,0.323,0.323,0.323,0.3229,0,0.2505,0.2521,0.2576,0.2585,0.2621,0.2674,0.2726,0.2785,0.2884,0.2946,0.3012,0.3078,0.3129,0.3191,0.3191,0.324,0.3263,0.3218,0.3217,0.3133,0.3124,0.3081,0.3046,0.3233,0.3232,0.3231,0.3231,0,0.2454,0.2491,0.2517,0.2579,0.26,0.2621,0.2718,0.2762,0.2865,0.2954,0.2986,0.3124,0.3211,0.326,0.3326,0.3308,0.3263,0.3345,0.325,0.3236,0.3168,0.3139,0.3051,0.2947,0.3366,0.3366,0.3367,0,0.2429,0.2436,0.2496,0.2511,0.2536,0.2582,0.2619,0.2735,0.2796,0.2969,0.3011,0.3149,0.3232,0.3359,0.3372,0.3408,0.329,0.3329,0.3243,0.3183,0.3149,0.3009,0.2916,0.3177,0.3176,0.3175,0.3174,0,0.238,0.2401,0.2423,0.2457,0.2488,0.2528,0.2593,0.2645,0.2777,0.2872,0.3003,0.3092,0.3254,0.3285,0.3363,0.3359,0.3188,0.3311,0.3269,0.3037,0.2864,0.2756,0.3104,0.3166,0.3167,0.3168,0.3168,0.3168,0.2338,0.2339,0.2369,0.2393,0.2428,0.2451,0.2453,0.2544,0.263,0.274,0.2899,0.3,0.3156,0.3272,0.3254,0.3209,0.3144,0.3116,0.3098,0.2971,0.2826,0.3169,0.3212,0.3213,0.3213,0.3214,0.3215,0,0.2271,0.2282,0.2305,0.2322,0.2316,0.2365,0.2415,0.2404,0.2451,0.261,0.2713,0.2886,0.2968,0.3066,0.3125,0.3024,0.2846,0.2939,0.2721,0.2645,0.2988,0.2937,0.2896,0.2896,0.2896,0.2896,0.2897,0.2897,0.2238,0.2222,0.2232,0.2196,0.2204,0.2162,0.2159,0.2175,0.226,0.2363,0.2474,0.2606,0.289,0.3045,0.3001,0.2914,0.2665,0.2562,0.2515,0.2787,0.28,0.2813,0.2759,0.2681,0.268,0.2056,0.2052,0.2048]},{"header":{"parameterUnit":"m.s-1","parameterCategory":2,"la1":30.2991,"la2":30.254,"lo1":-89.0895,"lo2":-89.0444,"dy":0.0017,"dx":0.0017,"nx":28,"ny":28,"refTime":"2024-10-07T03:00:00:Z","depth":"0","parameterNumber":3,"parameterNumberName":"V-component_of_CURRENTS"},"data":[0,0,0,0,0,0,0,0,0,0,0,0,0,0,0,0,0,0,0,0,0,0,0,0,0,0,0,0,0,0,0,0,0,0,0,0,0,0,0,0,0,0,0,0,0,0,0,0,0,0,0,0,0,0,0,0,0,0,-0.0153,-0.0153,0,-0.0204,-0.0205,-0.0206,-0.0239,-0.0239,-0.0239,-0.0239,-0.03,-0.0302,-0.0303,0,0,0,0,0,0,0,0,0,0,0,0,0,-0.0119,-0.012,-0.0153,-0.0153,-0.0154,-0.0204,-0.0205,-0.0206,-0.0239,-0.0239,-0.0239,-0.0239,-0.03,-0.0301,-0.0303,0,0,0,0,0,0,0,0,0,0,0,0,0,-0.015,-0.012,-0.0153,-0.0175,-0.0178,-0.0204,-0.0205,-0.0206,-0.0239,-0.0239,-0.0239,-0.0239,-0.0299,-0.0301,-0.0304,-0.0316,0,0,-0.0311,-0.0312,0,0,0,0,0,0,0,0,-0.0148,-0.0151,-0.0171,-0.0174,-0.0176,-0.0214,-0.0216,-0.0243,-0.0239,-0.0217,-0.0239,-0.0239,-0.0271,-0.0276,-0.0287,-0.0319,-0.0321,-0.0311,-0.0312,-0.0313,-0.0314,0,0,0,0,0,0,0,-0.0146,-0.0149,-0.0175,-0.0172,-0.0175,-0.0195,-0.02,-0.0221,-0.0244,-0.0219,-0.0221,-0.0225,-0.0273,-0.0285,-0.0289,-0.0322,-0.0311,-0.0313,-0.0314,-0.0315,-0.0363,-0.0363,0,0,0,0,0,0,-0.0135,-0.0147,-0.0173,-0.0176,-0.0161,-0.0196,-0.0201,-0.0203,-0.0244,-0.025,-0.0224,-0.0226,-0.0281,-0.0286,-0.0291,-0.0293,-0.0313,-0.0316,-0.0317,-0.0363,-0.0363,-0.0363,0,0,0,0,0,0,-0.0134,-0.0137,-0.0171,-0.0162,-0.0167,-0.0196,-0.0199,-0.0204,-0.0212,-0.0248,-0.0254,-0.0226,-0.0281,-0.0288,-0.0305,-0.0296,-0.0317,-0.0319,-0.0364,-0.0363,-0.0363,-0.0306,0,0,0,0,0,0,-0.0133,-0.0136,-0.0134,-0.0161,-0.0167,-0.0177,-0.0198,-0.0205,-0.0214,-0.0216,-0.0251,-0.0258,-0.0282,-0.0301,-0.0307,-0.0299,-0.0321,-0.0364,-0.0364,-0.0363,-0.0308,-0.0303,-0.03,0,0,0,0,0,-0.0131,-0.0122,-0.0134,-0.0137,-0.0164,-0.0177,-0.0182,-0.0203,-0.0214,-0.0212,-0.0238,-0.0256,-0.0304,-0.0303,-0.031,-0.0303,-0.0364,-0.0364,-0.0363,-0.0309,-0.0304,-0.03,0,0,0,0,0,0,-0.0104,-0.0126,-0.0138,-0.0136,-0.0152,-0.0181,-0.0182,-0.0198,-0.0218,-0.0219,-0.0255,-0.0262,-0.0275,-0.0298,-0.0295,-0.0317,-0.0337,-0.0338,-0.0294,-0.0289,-0.0285,-0.0264,-0.0323,0,0,0,0,0,-0.0098,-0.0099,-0.0122,-0.0121,-0.0126,-0.0154,-0.0162,-0.0176,-0.0197,-0.0206,-0.0231,-0.0258,-0.028,-0.029,-0.0315,-0.0324,-0.0348,-0.0326,-0.0322,-0.0318,-0.0307,-0.0341,-0.0338,-0.0362,-0.0362,-0.0362,0,0,-0.0087,-0.0099,-0.01,-0.0115,-0.013,-0.0127,-0.0159,-0.0164,-0.0162,-0.0209,-0.0214,-0.0246,-0.0281,-0.0292,-0.03,-0.0309,-0.0323,-0.0318,-0.0314,-0.0305,-0.034,-0.0338,-0.0335,-0.0362,-0.0362,-0.0362,0,0,-0.006,-0.0076,-0.0065,-0.0073,-0.0088,-0.0105,-0.0103,-0.0128,-0.014,-0.0153,-0.0185,-0.0208,-0.0243,-0.0264,-0.0279,-0.0268,-0.0303,-0.0279,-0.024,-0.0273,-0.0271,-0.027,-0.0293,-0.0294,-0.0275,-0.0275,-0.0275,0,-0.0045,-0.0035,-0.0063,-0.0052,-0.005,-0.0089,-0.0071,-0.009,-0.0118,-0.0123,-0.0145,-0.0195,-0.0227,-0.0238,-0.0236,-0.0258,-0.0281,-0.0253,-0.0267,-0.0266,-0.0266,-0.029,-0.0292,-0.0272,-0.0273,-0.0273,-0.0273,0,-0.0008,0.0001,0.0009,0.001,0.0006,0.0014,-0.001,-0.0018,-0.0041,-0.0062,-0.0083,-0.0134,-0.016,-0.0179,-0.0205,-0.0214,-0.0233,-0.0259,-0.0275,-0.0259,-0.0286,-0.0289,-0.0268,-0.0269,-0.027,-0.0271,0,0,0.0032,0.0035,0.004,0.0054,0.0042,0.0047,0.0049,0.0042,0.0052,0.0005,0.001,-0.0043,-0.0075,-0.0095,-0.0137,-0.0168,-0.0189,-0.0206,-0.0209,-0.0221,-0.0255,-0.0263,-0.0268,-0.0219,-0.022,-0.022,-0.0274,0,0.0073,0.0111,0.0099,0.0138,0.0157,0.0129,0.0135,0.0121,0.0101,0.0093,0.0031,0.0016,-0.0042,-0.0053,-0.0095,-0.0162,-0.0195,-0.0171,-0.0275,-0.0277,-0.0281,-0.0271,-0.0248,-0.0293,-0.0277,-0.0277,-0.0278,0,0.0121,0.014,0.0184,0.0206,0.0212,0.0224,0.0236,0.024,0.0212,0.0194,0.0161,0.0112,0.0064,0.0008,-0.0099,-0.0081,-0.0159,-0.0219,-0.0223,-0.0251,-0.0291,-0.0308,-0.03,-0.0439,-0.0283,-0.0282,-0.0282,0,0.0171,0.0205,0.0244,0.0252,0.0264,0.0277,0.0282,0.027,0.0293,0.0264,0.0273,0.0194,0.0167,0.0056,-0.007,-0.0084,-0.019,-0.0229,-0.031,-0.0311,-0.032,-0.0322,-0.0451,-0.0305,-0.0305,-0.0305,-0.0304,0,0.0225,0.0258,0.0271,0.0293,0.0345,0.033,0.038,0.0372,0.0379,0.0418,0.0331,0.0346,0.0177,0.0095,-0.0037,-0.0174,-0.0168,-0.0295,-0.0324,-0.03,-0.0299,-0.0444,-0.0539,-0.0307,-0.0306,-0.0306,-0.0305,0,0.0275,0.0281,0.0331,0.0355,0.037,0.0407,0.0455,0.0493,0.0484,0.0533,0.0531,0.0464,0.0361,0.0189,0.0017,-0.0115,-0.0341,-0.0309,-0.0263,-0.0286,-0.0492,-0.0583,-0.0759,-0.0822,-0.0404,-0.0405,-0.0405,0,0.0303,0.0334,0.0385,0.0424,0.0438,0.0491,0.0533,0.0546,0.0601,0.0617,0.0655,0.0571,0.0541,0.0284,0.0036,-0.0194,-0.035,-0.0337,-0.0365,-0.0493,-0.0618,-0.0692,-0.0737,-0.0357,-0.0357,-0.0357,-0.0357,0,0.0361,0.0376,0.0417,0.0496,0.055,0.0622,0.0686,0.0748,0.0773,0.0819,0.0869,0.0847,0.0606,0.0397,0.0068,-0.0108,-0.044,-0.0344,-0.0494,-0.0602,-0.0674,-0.075,-0.0329,-0.0357,-0.0357,-0.0357,-0.0357,-0.0357,0.0405,0.0445,0.0499,0.0579,0.0648,0.0742,0.0814,0.0897,0.0998,0.1081,0.1046,0.1054,0.0727,0.0295,0.0032,-0.0424,-0.0449,-0.0556,-0.0658,-0.0721,-0.0781,-0.0353,-0.0405,-0.0405,-0.0405,-0.0405,-0.0406,0,0.0462,0.0507,0.0581,0.0672,0.076,0.0784,0.0913,0.0996,0.1131,0.1215,0.1265,0.1129,0.0724,0.0287,-0.0322,-0.0658,-0.0796,-0.0858,-0.0961,-0.0993,-0.062,-0.0615,-0.0693,-0.0693,-0.0693,-0.0693,-0.0692,-0.0692,0.0492,0.057,0.0606,0.0754,0.0823,0.0946,0.1026,0.1153,0.1252,0.1367,0.1396,0.1384,0.1066,-0.0033,-0.0788,-0.0982,-0.1224,-0.1295,-0.142,-0.117,-0.1149,-0.113,-0.1146,-0.1335,-0.1336,-0.1728,-0.1732,-0.1735]}],[{"header":{"parameterUnit":"m.s-1","parameterCategory":2,"la1":30.2991,"la2":30.254,"lo1":-89.0895,"lo2":-89.0444,"dy":0.0017,"dx":0.0017,"nx":28,"ny":28,"refTime":"2024-10-07T03:00:00:Z","depth":"2","parameterNumber":2,"parameterNumberName":"U-component_of_CURRENTS"},"data":[0,0,0,0,0,0,0,0,0,0,0,0,0,0,0,0,0,0,0,0,0,0,0,0,0,0,0,0,0,0,0,0,0,0,0,0,0,0,0,0,0,0,0,0,0,0,0,0,0,0,0,0,0,0,0,0,0,0,0.2414,0.2414,0,0.2432,0.2432,0.2432,0.243,0.243,0.2429,0.2429,0.2426,0.2426,0.2426,0,0,0,0,0,0,0,0,0,0,0,0,0,0.2369,0.237,0.2414,0.2414,0.2415,0.2432,0.2432,0.2432,0.243,0.243,0.2429,0.2429,0.2426,0.2426,0.2426,0,0,0,0,0,0,0,0,0,0,0,0,0,0.2386,0.237,0.2414,0.2417,0.2417,0.2432,0.2432,0.2432,0.243,0.243,0.2429,0.2429,0.2426,0.2426,0.2426,0.243,0,0,0.2426,0.2426,0,0,0,0,0,0,0,0,0.2385,0.2388,0.2416,0.2417,0.2417,0.243,0.2415,0.2431,0.243,0.2423,0.2429,0.2429,0.2427,0.2427,0.2428,0.243,0.243,0.2426,0.2426,0.2426,0.2426,0,0,0,0,0,0,0,0.2384,0.2387,0.2419,0.2416,0.2417,0.2415,0.2417,0.2418,0.2424,0.2424,0.2424,0.2429,0.2427,0.2428,0.2428,0.243,0.2426,0.2426,0.2426,0.2426,0.2478,0.248,0,0,0,0,0,0,0.2386,0.2386,0.2418,0.242,0.2403,0.2416,0.2418,0.2425,0.2424,0.2425,0.2429,0.2429,0.2428,0.2428,0.2428,0.2466,0.2426,0.2426,0.2426,0.2477,0.2479,0.248,0,0,0,0,0,0,0.2385,0.2389,0.2418,0.2405,0.2408,0.2417,0.2424,0.2425,0.2437,0.2429,0.2429,0.2441,0.2428,0.2428,0.2445,0.2465,0.2426,0.2427,0.2475,0.2478,0.2479,0.2522,0,0,0,0,0,0,0.2384,0.2389,0.2396,0.2405,0.2409,0.2437,0.2425,0.2426,0.2441,0.2441,0.2439,0.2438,0.2428,0.2445,0.2445,0.2464,0.2427,0.2474,0.2476,0.2479,0.2519,0.2525,0.253,0,0,0,0,0,0.2382,0.2393,0.2397,0.2401,0.2419,0.2438,0.244,0.2444,0.2442,0.2452,0.2454,0.2439,0.2461,0.2446,0.2445,0.2466,0.2473,0.2476,0.2479,0.2516,0.2524,0.253,0,0,0,0,0,0,0.2376,0.2395,0.2398,0.2414,0.243,0.2438,0.245,0.2453,0.2463,0.2464,0.2453,0.2453,0.2478,0.2468,0.2452,0.249,0.2465,0.2469,0.2494,0.2501,0.2507,0.2518,0.2427,0,0,0,0,0,0.238,0.2394,0.2411,0.2425,0.2435,0.2445,0.2454,0.246,0.2469,0.2473,0.2473,0.2477,0.2489,0.2492,0.25,0.2516,0.2524,0.2531,0.2537,0.2541,0.2552,0.2582,0.2592,0.249,0.249,0.249,0,0,0.2381,0.2394,0.2401,0.2425,0.2437,0.2456,0.245,0.2472,0.2488,0.2471,0.2494,0.25,0.2501,0.2523,0.2533,0.2516,0.2577,0.2545,0.2549,0.2557,0.2587,0.2596,0.2605,0.2492,0.2492,0.2492,0,0,0.239,0.2404,0.2419,0.2437,0.2463,0.2472,0.2483,0.2501,0.2511,0.2533,0.2532,0.2553,0.256,0.257,0.2574,0.2618,0.2611,0.262,0.2652,0.2682,0.269,0.2698,0.2728,0.2738,0.2617,0.2617,0.2617,0,0.239,0.241,0.2427,0.2448,0.2464,0.2482,0.2502,0.2519,0.254,0.2556,0.2547,0.2586,0.2585,0.262,0.2637,0.2632,0.2647,0.2622,0.2689,0.2697,0.2704,0.2732,0.2743,0.262,0.2619,0.2619,0.2619,0,0.2408,0.2429,0.2442,0.2473,0.2495,0.2518,0.2544,0.2568,0.2581,0.2597,0.2639,0.2646,0.2669,0.2674,0.2667,0.272,0.2715,0.2696,0.2669,0.2716,0.2744,0.2754,0.2623,0.2622,0.2622,0.2621,0,0,0.2394,0.2443,0.2448,0.2465,0.251,0.2526,0.2568,0.2606,0.2639,0.2661,0.2702,0.2727,0.2738,0.2746,0.2746,0.277,0.2834,0.2757,0.2757,0.2784,0.2906,0.2885,0.2893,0.2825,0.2827,0.2828,0.2908,0,0.2401,0.2437,0.2465,0.2502,0.252,0.2558,0.2595,0.2636,0.2671,0.2717,0.2741,0.2781,0.2763,0.2783,0.2807,0.2833,0.2861,0.2814,0.286,0.2861,0.2833,0.2904,0.2677,0.2728,0.2918,0.2919,0.292,0,0.2404,0.2429,0.2461,0.2514,0.2527,0.2555,0.2619,0.2656,0.273,0.2766,0.2814,0.2836,0.2891,0.2862,0.293,0.2902,0.2913,0.2923,0.2926,0.2898,0.2858,0.2711,0.2739,0.2937,0.2936,0.2934,0.2933,0,0.2369,0.2423,0.2446,0.2463,0.2527,0.2553,0.2592,0.2665,0.2715,0.2801,0.2851,0.2908,0.2952,0.2976,0.3003,0.2973,0.3075,0.303,0.3021,0.302,0.2832,0.2811,0.3079,0.3079,0.3079,0.3078,0.3078,0,0.2356,0.2375,0.243,0.2441,0.248,0.2532,0.2588,0.2647,0.2742,0.2802,0.287,0.293,0.2985,0.3042,0.3043,0.3079,0.3108,0.3052,0.3048,0.2842,0.2822,0.3,0.299,0.3081,0.3081,0.308,0.308,0,0.2311,0.2347,0.2375,0.2439,0.2462,0.2487,0.2584,0.2628,0.273,0.2815,0.2849,0.2976,0.3053,0.3101,0.3161,0.3138,0.3164,0.3162,0.2927,0.2894,0.3076,0.3067,0.3162,0.3162,0.3162,0.3162,0.3162,0,0.2288,0.2297,0.236,0.2376,0.2405,0.2455,0.2494,0.2607,0.2662,0.2826,0.2863,0.2991,0.3055,0.3162,0.3156,0.3179,0.3197,0.2969,0.2869,0.3103,0.3089,0.308,0.3071,0.2635,0.2631,0.2628,0.2625,0,0.2244,0.2268,0.229,0.2328,0.2362,0.2402,0.2468,0.2512,0.2639,0.2725,0.2835,0.2907,0.3035,0.2974,0.3033,0.3001,0.2947,0.2901,0.3209,0.266,0.2615,0.2599,0.2605,0.2594,0.2597,0.2599,0.2601,0.2602,0.2208,0.221,0.2241,0.2268,0.2305,0.2324,0.2326,0.2406,0.2478,0.2562,0.2704,0.2733,0.2794,0.2777,0.2709,0.266,0.2852,0.2701,0.2707,0.2718,0.2653,0.2612,0.2578,0.2581,0.2583,0.2586,0.2588,0,0.2147,0.2158,0.218,0.2197,0.2191,0.2246,0.2287,0.2262,0.2289,0.2397,0.247,0.2323,0.2319,0.2364,0.2261,0.2287,0.2216,0.2175,0.2047,0.2083,0.2114,0.2012,0.177,0.1767,0.1764,0.1761,0,0,0.2116,0.21,0.2107,0.207,0.2082,0.2042,0.2036,0.2024,0.2062,0.2046,0.205,0.2225,0.2322,0.201,0.1991,0.1857,0.1941,0.1786,0.2454,0.2342,0.2368,0.2447,0.2337,0,0,0,0,0]},{"header":{"parameterUnit":"m.s-1","parameterCategory":2,"la1":30.2991,"la2":30.254,"lo1":-89.0895,"lo2":-89.0444,"dy":0.0017,"dx":0.0017,"nx":28,"ny":28,"refTime":"2024-10-07T03:00:00:Z","depth":"2","parameterNumber":3,"parameterNumberName":"V-component_of_CURRENTS"},"data":[0,0,0,0,0,0,0,0,0,0,0,0,0,0,0,0,0,0,0,0,0,0,0,0,0,0,0,0,0,0,0,0,0,0,0,0,0,0,0,0,0,0,0,0,0,0,0,0,0,0,0,0,0,0,0,0,0,0,0.0032,0.0031,0,-0.002,-0.002,-0.0021,-0.0061,-0.0061,-0.0062,-0.0062,-0.0127,-0.0128,-0.0129,0,0,0,0,0,0,0,0,0,0,0,0,0,0.0061,0.006,0.0032,0.0031,0.0031,-0.002,-0.002,-0.0021,-0.0061,-0.0061,-0.0062,-0.0062,-0.0126,-0.0128,-0.013,0,0,0,0,0,0,0,0,0,0,0,0,0,0.0032,0.006,0.0032,0.0006,0.0003,-0.0019,-0.002,-0.0021,-0.0061,-0.0061,-0.0062,-0.0062,-0.0126,-0.0128,-0.013,-0.0135,0,0,-0.0136,-0.0137,0,0,0,0,0,0,0,0,0.0033,0.0031,0.001,0.0007,0.0004,-0.0034,-0.0034,-0.006,-0.0061,-0.0038,-0.0062,-0.0062,-0.0096,-0.01,-0.011,-0.0138,-0.014,-0.0137,-0.0138,-0.0139,-0.014,0,0,0,0,0,0,0,0.0036,0.0032,0.001,0.001,0.0006,-0.0016,-0.002,-0.0039,-0.0065,-0.004,-0.0043,-0.0047,-0.0098,-0.0108,-0.0112,-0.0141,-0.0137,-0.0139,-0.014,-0.0141,-0.0184,-0.0184,0,0,0,0,0,0,0.0046,0.0035,0.0012,0.0009,0.0019,-0.0016,-0.0021,-0.0022,-0.0064,-0.0071,-0.0046,-0.0048,-0.0104,-0.011,-0.0115,-0.0119,-0.0139,-0.0141,-0.0142,-0.0184,-0.0184,-0.0184,0,0,0,0,0,0,0.0047,0.0045,0.0014,0.0021,0.0016,-0.0015,-0.0017,-0.0023,-0.0034,-0.0069,-0.0076,-0.0051,-0.0105,-0.0112,-0.0129,-0.0122,-0.0142,-0.0144,-0.0184,-0.0184,-0.0184,-0.0129,0,0,0,0,0,0,0.0048,0.0046,0.0047,0.0022,0.0016,0.0008,-0.0016,-0.0023,-0.0035,-0.0038,-0.0075,-0.0082,-0.0106,-0.0125,-0.0131,-0.0125,-0.0146,-0.0184,-0.0184,-0.0184,-0.0131,-0.0127,-0.0124,0,0,0,0,0,0.0049,0.006,0.0048,0.0045,0.002,0.0009,0.0004,-0.0021,-0.0035,-0.0034,-0.006,-0.0081,-0.0127,-0.0126,-0.0133,-0.0128,-0.0185,-0.0184,-0.0184,-0.0133,-0.0128,-0.0124,0,0,0,0,0,0,0.0074,0.0056,0.0042,0.0046,0.003,0.0002,0.0001,-0.0017,-0.0038,-0.0042,-0.0077,-0.0085,-0.0099,-0.0121,-0.0119,-0.014,-0.016,-0.0161,-0.0119,-0.0115,-0.0111,-0.0093,-0.0147,0,0,0,0,0,0.0081,0.0082,0.006,0.0062,0.0057,0.0028,0.002,0.0004,-0.0017,-0.0028,-0.0054,-0.0082,-0.0102,-0.0113,-0.0136,-0.0145,-0.0169,-0.0147,-0.0144,-0.014,-0.0131,-0.0164,-0.0162,-0.0182,-0.0182,-0.0182,0,0,0.009,0.0081,0.008,0.0067,0.0051,0.0055,0.0022,0.0015,0.0016,-0.0031,-0.0039,-0.0069,-0.0102,-0.0114,-0.0122,-0.0131,-0.0147,-0.014,-0.0136,-0.0129,-0.0163,-0.0161,-0.016,-0.0182,-0.0182,-0.0182,0,0,0.0116,0.0102,0.0113,0.0106,0.0089,0.0074,0.0075,0.0049,0.0035,0.0022,-0.001,-0.0034,-0.0067,-0.0087,-0.0102,-0.0091,-0.0127,-0.0102,-0.0066,-0.0099,-0.0097,-0.0096,-0.0122,-0.0123,-0.0099,-0.0099,-0.0098,0,0.0129,0.014,0.0115,0.0126,0.0126,0.0088,0.0104,0.0086,0.0057,0.0051,0.0027,-0.0022,-0.0053,-0.0063,-0.0062,-0.0081,-0.0105,-0.0079,-0.0093,-0.0092,-0.0092,-0.0119,-0.0121,-0.0096,-0.0096,-0.0096,-0.0097,0,0.0164,0.0172,0.018,0.0181,0.0178,0.0185,0.0161,0.0153,0.0127,0.0107,0.0084,0.0036,0.0009,-0.0008,-0.0032,-0.0043,-0.0062,-0.0085,-0.0101,-0.0087,-0.0116,-0.0119,-0.0092,-0.0093,-0.0094,-0.0094,0,0,0.0198,0.0204,0.0208,0.0222,0.021,0.0215,0.0216,0.021,0.0218,0.017,0.0172,0.0122,0.0089,0.007,0.003,0.0,-0.0023,-0.0037,-0.004,-0.0056,-0.0092,-0.0105,-0.011,-0.0051,-0.0052,-0.0052,-0.0111,0,0.0235,0.0272,0.0262,0.0298,0.0317,0.029,0.0296,0.0283,0.0262,0.0252,0.0193,0.0177,0.0121,0.0108,0.0068,0.0003,-0.0031,-0.0005,-0.0109,-0.0112,-0.012,-0.0114,-0.0087,-0.0138,-0.0115,-0.0116,-0.0116,0,0.0277,0.0297,0.0339,0.0362,0.0368,0.0378,0.039,0.0393,0.0366,0.0348,0.0313,0.0265,0.0218,0.0164,0.0058,0.0076,-0.0,-0.0058,-0.0062,-0.0094,-0.0131,-0.0151,-0.0146,-0.0123,-0.0122,-0.0122,-0.0121,0,0.032,0.0355,0.0392,0.04,0.0414,0.0426,0.0431,0.042,0.0442,0.0411,0.0418,0.034,0.0311,0.0204,0.008,0.0068,-0.0039,-0.0073,-0.0157,-0.0159,-0.0165,-0.0167,-0.0149,-0.0149,-0.0149,-0.0149,-0.0148,0,0.0368,0.0399,0.0415,0.0435,0.0485,0.0473,0.052,0.0513,0.0519,0.0556,0.0472,0.0481,0.0319,0.0237,0.011,-0.0028,-0.002,-0.0145,-0.0174,-0.0146,-0.0145,-0.0156,-0.0156,-0.0151,-0.015,-0.015,-0.015,0,0.0411,0.0419,0.0467,0.0492,0.0507,0.0541,0.059,0.0627,0.0617,0.0663,0.0659,0.059,0.0482,0.0318,0.0149,0.0024,-0.0114,-0.0168,-0.012,-0.0142,-0.0221,-0.0218,-0.0267,-0.0268,-0.0268,-0.0269,-0.027,0,0.0435,0.0464,0.0515,0.0552,0.0566,0.0617,0.0659,0.0675,0.0728,0.0738,0.0773,0.0683,0.0642,0.0388,0.0151,-0.0072,-0.0109,-0.0203,-0.0226,-0.0209,-0.0233,-0.0228,-0.0224,-0.0215,-0.0215,-0.0215,-0.0215,0,0.0487,0.0501,0.0542,0.0617,0.067,0.0742,0.0804,0.0863,0.0888,0.0926,0.096,0.0928,0.0687,0.047,0.0154,-0.0001,-0.0168,-0.0211,-0.0207,-0.0186,-0.0165,-0.0187,-0.0183,-0.0216,-0.0216,-0.0216,-0.0216,-0.0216,0.0526,0.0564,0.0617,0.0693,0.076,0.0852,0.0921,0.0997,0.1087,0.1146,0.1107,0.1062,0.0805,0.0414,0.0136,-0.0167,-0.0157,-0.0264,-0.0262,-0.0261,-0.0241,-0.0222,-0.028,-0.028,-0.028,-0.028,-0.0281,0,0.0577,0.062,0.0692,0.078,0.0863,0.0889,0.1013,0.1085,0.1197,0.1238,0.1261,0.1028,0.0779,0.0473,0.0034,-0.0225,-0.0247,-0.0313,-0.028,-0.0277,-0.0275,-0.0256,-0.0299,-0.03,-0.03,-0.0301,0,0,0.0604,0.0678,0.0714,0.0852,0.0918,0.1036,0.1111,0.1214,0.1275,0.1322,0.1297,0.1241,0.0875,0.056,0.0205,-0.005,-0.0108,-0.0104,-0.0061,0.0022,0.0027,-0.0218,-0.0181,0,0,0,0,0]}],[{"header":{"parameterUnit":"m.s-1","parameterCategory":2,"la1":30.2991,"la2":30.254,"lo1":-89.0895,"lo2":-89.0444,"dy":0.0017,"dx":0.0017,"nx":28,"ny":28,"refTime":"2024-10-07T03:00:00:Z","depth":"4","parameterNumber":2,"parameterNumberName":"U-component_of_CURRENTS"},"data":[0,0,0,0,0,0,0,0,0,0,0,0,0,0,0,0,0,0,0,0,0,0,0,0,0,0,0,0,0,0,0,0,0,0,0,0,0,0,0,0,0,0,0,0,0,0,0,0,0,0,0,0,0,0,0,0,0,0,0.1554,0.1555,0,0.1608,0.1609,0.1609,0.1659,0.166,0.1661,0.1661,0.1726,0.1727,0.1728,0,0,0,0,0,0,0,0,0,0,0,0,0,0.1486,0.1487,0.1554,0.1555,0.1556,0.1608,0.1609,0.1609,0.1659,0.166,0.1661,0.1662,0.1725,0.1727,0.1728,0,0,0,0,0,0,0,0,0,0,0,0,0,0.1524,0.1487,0.1554,0.1588,0.1592,0.1608,0.1609,0.1609,0.1659,0.166,0.1661,0.1662,0.1725,0.1726,0.1728,0.1714,0,0,0.1732,0.1733,0,0,0,0,0,0,0,0,0.1521,0.1526,0.1583,0.1586,0.159,0.163,0.1608,0.1646,0.1658,0.1632,0.1661,0.1663,0.1695,0.1699,0.1704,0.1717,0.172,0.1733,0.1734,0.1734,0.1735,0,0,0,0,0,0,0,0.1519,0.1524,0.1574,0.1583,0.1588,0.1598,0.1605,0.1615,0.1655,0.1634,0.1638,0.1647,0.1697,0.1702,0.1706,0.1721,0.1733,0.1734,0.1735,0.1735,0.1835,0.1836,0,0,0,0,0,0,0.1515,0.1521,0.1572,0.1576,0.156,0.1599,0.1606,0.1614,0.1655,0.1662,0.1646,0.1649,0.1699,0.1704,0.1708,0.179,0.1734,0.1736,0.1736,0.1833,0.1835,0.1837,0,0,0,0,0,0,0.1513,0.1519,0.157,0.1551,0.1559,0.1599,0.1608,0.1615,0.1656,0.1664,0.1671,0.1684,0.17,0.1706,0.1753,0.1789,0.1736,0.1738,0.1831,0.1834,0.1836,0.1892,0,0,0,0,0,0,0.1511,0.1518,0.1538,0.1551,0.156,0.1604,0.1607,0.1615,0.1658,0.1664,0.1698,0.1704,0.1702,0.1751,0.1755,0.179,0.1739,0.1829,0.1832,0.1835,0.1888,0.1896,0.1903,0,0,0,0,0,0.1508,0.1526,0.1539,0.1546,0.1581,0.1605,0.1611,0.1641,0.1659,0.1682,0.1711,0.1704,0.1775,0.1754,0.1758,0.1794,0.1827,0.1831,0.1835,0.1885,0.1895,0.1903,0,0,0,0,0,0,0.1509,0.1533,0.1548,0.1574,0.16,0.1615,0.1643,0.166,0.17,0.1717,0.1723,0.173,0.1786,0.1783,0.176,0.1834,0.1801,0.1806,0.1838,0.1847,0.1855,0.1859,0.174,0,0,0,0,0,0.1517,0.1541,0.1561,0.1588,0.1604,0.163,0.1651,0.1672,0.1699,0.172,0.1744,0.1772,0.1798,0.1818,0.1838,0.1875,0.1876,0.1903,0.1911,0.1917,0.1925,0.1955,0.1966,0.185,0.185,0.185,0,0,0.1525,0.1543,0.1558,0.1591,0.1616,0.1642,0.1647,0.1689,0.172,0.1719,0.1782,0.1802,0.1815,0.186,0.1885,0.1867,0.1953,0.1922,0.1927,0.1931,0.196,0.1971,0.1981,0.1853,0.1852,0.1852,0,0,0.1542,0.1572,0.1594,0.1619,0.1662,0.1677,0.1697,0.1733,0.1764,0.1814,0.1827,0.1871,0.1909,0.1927,0.1938,0.2,0.1993,0.2013,0.2055,0.2085,0.2094,0.2103,0.2125,0.2135,0.2016,0.2016,0.2016,0,0.1556,0.1583,0.1606,0.1634,0.1661,0.1696,0.1727,0.1758,0.1809,0.1838,0.1847,0.1924,0.1939,0.199,0.2017,0.2017,0.2032,0.2016,0.2094,0.2102,0.211,0.213,0.2141,0.2019,0.2019,0.2018,0.2018,0,0.1577,0.1614,0.1633,0.1678,0.1709,0.1746,0.1785,0.1831,0.1873,0.19,0.1975,0.1999,0.2044,0.206,0.2059,0.2126,0.2118,0.2099,0.2067,0.2125,0.2143,0.2153,0.2023,0.2022,0.2021,0.2021,0,0,0.1566,0.1634,0.1645,0.1674,0.1738,0.1761,0.1825,0.188,0.1928,0.1985,0.2045,0.21,0.2124,0.2139,0.2151,0.2181,0.2251,0.2173,0.2173,0.2189,0.2322,0.2188,0.2185,0.2249,0.2251,0.2252,0.2314,0,0.158,0.1631,0.1667,0.1727,0.1755,0.1811,0.1864,0.1924,0.198,0.2046,0.2091,0.2154,0.215,0.2187,0.2219,0.2247,0.2278,0.2236,0.2269,0.227,0.2138,0.2192,0.2258,0.2321,0.2323,0.2325,0.2326,0,0.1582,0.1619,0.1676,0.175,0.1771,0.1818,0.1908,0.196,0.2054,0.2103,0.2173,0.221,0.2284,0.2265,0.2341,0.2318,0.2331,0.2341,0.2343,0.2204,0.2153,0.2252,0.2343,0.2342,0.234,0.2339,0.2338,0,0.1542,0.1622,0.1669,0.1695,0.1785,0.1833,0.189,0.1983,0.204,0.215,0.2205,0.2283,0.2341,0.2372,0.2406,0.2386,0.2475,0.244,0.233,0.232,0.2397,0.2387,0.2488,0.2488,0.2488,0.2488,0.2488,0,0.1521,0.1563,0.1661,0.1684,0.1752,0.1823,0.1905,0.1976,0.2084,0.2145,0.2237,0.229,0.2375,0.243,0.2438,0.2415,0.2501,0.2347,0.2329,0.242,0.2412,0.2404,0.2393,0.249,0.249,0.2489,0.2489,0,0.1464,0.1529,0.1587,0.1694,0.1734,0.1784,0.1911,0.1961,0.2079,0.2164,0.2208,0.2329,0.2392,0.2453,0.2513,0.2445,0.2441,0.2411,0.2521,0.2508,0.2259,0.2251,0.2283,0.2279,0.2275,0.2272,0.227,0,0.1434,0.146,0.1582,0.162,0.1676,0.1763,0.1818,0.1947,0.1997,0.2159,0.2184,0.2305,0.2363,0.234,0.2414,0.242,0.2392,0.2374,0.2297,0.2259,0.224,0.2237,0.2234,0.2264,0.2263,0.2262,0.2261,0,0.1376,0.1436,0.1483,0.1564,0.1632,0.1691,0.178,0.1807,0.1942,0.2071,0.2108,0.2143,0.2212,0.2247,0.228,0.2276,0.2373,0.2336,0.2342,0.227,0.2237,0.222,0.2221,0.2249,0.2251,0.2252,0.2253,0,0.1339,0.1356,0.1429,0.1486,0.1566,0.1589,0.1648,0.1699,0.1766,0.1936,0.1944,0.2065,0.2184,0.2174,0.2199,0.2193,0.215,0.2068,0.2088,0.2102,0.2014,0.1944,0.1858,0,0,0,0,0,0.1289,0.1295,0.1342,0.1391,0.1464,0.1507,0.1607,0.1665,0.1794,0.1772,0.1852,0.1901,0.194,0.2009,0.1964,0.2125,0.2164,0.2065,0.208,0.2181,0.2195,0.2108,0,0,0,0,0,0,0.1253,0.1294,0.1305,0.1299,0.1313,0.1374,0.1428,0.1515,0.1508,0.1649,0.168,0.1791,0.186,0.1945,0.1929,0.195,0.1922,0.2149,0.2144,0.2173,0.2186,0.2197,0.2112,0,0,0,0,0]},{"header":{"parameterUnit":"m.s-1","parameterCategory":2,"la1":30.2991,"la2":30.254,"lo1":-89.0895,"lo2":-89.0444,"dy":0.0017,"dx":0.0017,"nx":28,"ny":28,"refTime":"2024-10-07T03:00:00:Z","depth":"4","parameterNumber":3,"parameterNumberName":"V-component_of_CURRENTS"},"data":[0,0,0,0,0,0,0,0,0,0,0,0,0,0,0,0,0,0,0,0,0,0,0,0,0,0,0,0,0,0,0,0,0,0,0,0,0,0,0,0,0,0,0,0,0,0,0,0,0,0,0,0,0,0,0,0,0,0,0.0148,0.0148,0,0.0113,0.0113,0.0112,0.0082,0.0081,0.0081,0.0081,0.0033,0.0032,0.0031,0,0,0,0,0,0,0,0,0,0,0,0,0,0.0163,0.0163,0.0149,0.0148,0.0148,0.0113,0.0113,0.0112,0.0082,0.0081,0.0081,0.0081,0.0033,0.0032,0.003,0,0,0,0,0,0,0,0,0,0,0,0,0,0.0145,0.0163,0.0149,0.0129,0.0127,0.0113,0.0113,0.0112,0.0082,0.0081,0.0081,0.0081,0.0033,0.0032,0.003,0.0029,0,0,0.0026,0.0025,0,0,0,0,0,0,0,0,0.0146,0.0144,0.0132,0.013,0.0128,0.0102,0.01,0.0084,0.0082,0.0098,0.0081,0.008,0.0055,0.0052,0.0045,0.0027,0.0025,0.0026,0.0025,0.0024,0.0023,0,0,0,0,0,0,0,0.0147,0.0145,0.0134,0.0132,0.0129,0.0113,0.011,0.0097,0.0079,0.0097,0.0095,0.0092,0.0054,0.0047,0.0044,0.0024,0.0026,0.0024,0.0023,0.0023,-0.0006,-0.0006,0,0,0,0,0,0,0.0155,0.0147,0.0135,0.0133,0.0137,0.0113,0.011,0.011,0.0079,0.0074,0.0092,0.009,0.005,0.0046,0.0042,0.0042,0.0024,0.0022,0.0022,-0.0006,-0.0006,-0.0006,0,0,0,0,0,0,0.0155,0.0154,0.0136,0.0139,0.0136,0.0113,0.0114,0.011,0.0104,0.0076,0.0071,0.0091,0.0049,0.0044,0.0034,0.004,0.0022,0.002,-0.0006,-0.0006,-0.0006,0.004,0,0,0,0,0,0,0.0156,0.0155,0.0159,0.014,0.0136,0.0133,0.0114,0.0109,0.0103,0.01,0.0073,0.0068,0.0049,0.0036,0.0033,0.0037,0.0019,-0.0006,-0.0006,-0.0006,0.0038,0.0041,0.0044,0,0,0,0,0,0.0157,0.0167,0.0159,0.0158,0.0142,0.0134,0.0131,0.0112,0.0103,0.0104,0.0086,0.0069,0.0035,0.0036,0.0031,0.0035,-0.0007,-0.0006,-0.0006,0.0037,0.0041,0.0044,0,0,0,0,0,0,0.0176,0.0164,0.0155,0.0161,0.015,0.0129,0.013,0.0117,0.0103,0.0101,0.0074,0.0068,0.0059,0.0042,0.0043,0.0027,0.0011,0.001,0.0044,0.0048,0.0051,0.0064,0.0018,0,0,0,0,0,0.0182,0.0186,0.017,0.0175,0.0172,0.0152,0.0146,0.0135,0.0119,0.0113,0.0093,0.0073,0.0057,0.0049,0.0032,0.0027,0.0004,0.0025,0.0028,0.0031,0.0038,0.0006,0.0007,-0.0004,-0.0004,-0.0004,0,0,0.0191,0.0185,0.0187,0.0179,0.0169,0.0172,0.0148,0.0144,0.0145,0.011,0.0107,0.0084,0.0058,0.005,0.0045,0.0037,0.0022,0.0032,0.0034,0.0039,0.0006,0.0008,0.0009,-0.0004,-0.0004,-0.0004,0,0,0.0211,0.0206,0.0215,0.0211,0.0201,0.0189,0.0191,0.0173,0.0163,0.0157,0.0131,0.0114,0.0091,0.0073,0.0061,0.0073,0.004,0.0065,0.0092,0.0062,0.0062,0.0063,0.0036,0.0033,0.0067,0.0067,0.0067,0,0.0221,0.0232,0.0217,0.0225,0.0227,0.0201,0.0213,0.0201,0.0181,0.0178,0.0162,0.0125,0.0102,0.0093,0.0095,0.0081,0.0058,0.0081,0.0066,0.0066,0.0066,0.0038,0.0035,0.0069,0.0069,0.0068,0.0068,0,0.0247,0.0257,0.0264,0.0267,0.0266,0.0273,0.0257,0.0253,0.0237,0.0222,0.0207,0.0171,0.0151,0.0138,0.012,0.0109,0.0092,0.0074,0.0059,0.007,0.004,0.0035,0.0072,0.0071,0.0071,0.007,0,0,0.0268,0.028,0.0283,0.0296,0.029,0.0295,0.0299,0.0296,0.0304,0.027,0.0272,0.0236,0.0212,0.0197,0.0167,0.014,0.0115,0.011,0.0108,0.0088,0.0049,0.0036,0.003,0.0093,0.0093,0.0093,0.0029,0,0.0293,0.0323,0.032,0.035,0.0365,0.0351,0.0358,0.0351,0.0338,0.0332,0.0287,0.0277,0.0236,0.0228,0.0193,0.0138,0.0106,0.0134,0.0037,0.0034,0.0025,0.0026,0.0091,0.0026,0.0025,0.0024,0.0023,0,0.0319,0.0337,0.0373,0.0398,0.0404,0.0416,0.0431,0.0436,0.0418,0.0406,0.038,0.0344,0.0304,0.0265,0.0172,0.0191,0.0126,0.0077,0.0072,0.0044,0.0014,0.001,0.0015,0.0016,0.0017,0.0017,0.0018,0,0.0343,0.0376,0.0409,0.0417,0.0437,0.0452,0.0462,0.0459,0.0478,0.0456,0.0461,0.0398,0.0374,0.0284,0.0181,0.0176,0.0073,0.0051,-0.0024,-0.0025,-0.0015,-0.0015,-0.0019,-0.0019,-0.0019,-0.0018,-0.0018,0,0.0369,0.0398,0.0426,0.0443,0.049,0.0489,0.0532,0.053,0.054,0.0566,0.0505,0.0502,0.0377,0.0303,0.0199,0.0078,0.0083,-0.0017,-0.0042,0.0005,0.0008,-0.0018,-0.0017,-0.0021,-0.002,-0.002,-0.0019,0,0.0389,0.0405,0.0449,0.0484,0.0503,0.0536,0.0589,0.062,0.0618,0.0649,0.0646,0.0583,0.0482,0.0352,0.0205,0.0111,-0.0008,-0.0055,0.0013,-0.0008,-0.0091,-0.0087,-0.0142,-0.0143,-0.0144,-0.0144,-0.0145,0,0.04,0.0425,0.0485,0.052,0.054,0.0593,0.0634,0.0657,0.0694,0.0698,0.0714,0.0633,0.0569,0.0361,0.0212,0.001,-0.0025,-0.0091,-0.01,-0.0084,-0.0104,-0.0098,-0.0094,-0.0146,-0.0146,-0.0147,-0.0147,0,0.0425,0.0448,0.0485,0.0558,0.0611,0.0676,0.0733,0.0766,0.0791,0.0794,0.0769,0.0658,0.0541,0.0368,0.0209,0.0062,-0.005,-0.01,-0.01,-0.0109,-0.009,-0.0108,-0.0102,-0.015,-0.0149,-0.0149,-0.0149,0,0.0446,0.0476,0.0528,0.0593,0.0665,0.0732,0.0761,0.0799,0.0833,0.0832,0.0821,0.069,0.0615,0.0395,0.0251,0.0103,0.0057,-0.0,-0.0006,-0.0005,0.0047,0.0091,0.0069,0,0,0,0,0,0.0464,0.05,0.0561,0.0631,0.0702,0.0746,0.0818,0.0841,0.0866,0.0857,0.0841,0.0731,0.0513,0.0423,0.0273,0.0222,0.0024,0.0039,-0.0046,-0.0165,-0.0162,-0.0126,0,0,0,0,0,0,0.0475,0.0531,0.056,0.0651,0.0704,0.0787,0.0834,0.0853,0.0847,0.0846,0.0739,0.0683,0.0478,0.0601,0.0268,0.0223,0.0145,-0.006,-0.0063,-0.0167,-0.0164,-0.0161,-0.0124,0,0,0,0,0]}]]